Вернуться в каталог

STARLINK-34626

АктивенСвязьVLEO
NORAD 65082·PAYLOAD·🇺🇸 United States

Запущен Aug 4, 2025 с Cape Canaveral Space Force Station

Loading…

Ближайшие Пролёты (ближайшие 24 часа)

TLE

СвежийSource: CelesTrak SupGP

Эпоха: Sep 14, 2026, 21:27 UTC

1 65082C 25167E   26257.89423611  .00030143  00000+0  89048-3 0  2577
2 65082  53.1576 220.2234 0001518  93.2822 353.3686 15.34378297    10

Отслеживайте STARLINK-34626 в реальном времени с AllMySat

Download on the App Store